Stündliche Wetter Kyslytsya

Heute, 24 Januar, Sonntag

Zeit Temperatur Niederschläge Wind Luftdruck Luftfeuchtigkeit
00:00 +7°C° 0 mm 8 m/S 755 mmHg 83%
01:00 +7°C° 0 mm 8 m/S 755 mmHg 82%
02:00 +7°C° 0 mm 9 m/S 755 mmHg 82%
03:00 +7°C° 0.6 mm 9 m/S 754 mmHg 83%
04:00 +7°C° 0.6 mm 9 m/S 753 mmHg 83%
05:00 +7°C° 0.6 mm 10 m/S 752 mmHg 84%
06:00 +7°C° 0.5 mm 10 m/S 752 mmHg 83%
07:00 +8°C° 0.5 mm 10 m/S 752 mmHg 83%
08:00 +8°C° 0.5 mm 10 m/S 752 mmHg 82%
09:00 +8°C° 0 mm 9 m/S 752 mmHg 78%
10:00 +10°C° 0 mm 8 m/S 752 mmHg 73%
11:00 +11°C° 0 mm 7 m/S 753 mmHg 69%
12:00 +11°C° 0 mm 7 m/S 752 mmHg 66%
13:00 +13°C° 0 mm 6 m/S 752 mmHg 62%
14:00 +13°C° 0 mm 5 m/S 752 mmHg 59%
15:00 +12°C° 0 mm 5 m/S 752 mmHg 66%
16:00 +11°C° 0 mm 4 m/S 752 mmHg 73%
17:00 +10°C° 0 mm 4 m/S 752 mmHg 80%
18:00 +10°C° 0 mm 4 m/S 752 mmHg 80%
19:00 +8°C° 0 mm 4 m/S 752 mmHg 79%
20:00 +8°C° 0 mm 4 m/S 753 mmHg 78%
21:00 +7°C° 0 mm 4 m/S 753 mmHg 78%
22:00 +8°C° 0 mm 3 m/S 753 mmHg 78%
23:00 +7°C° 0 mm 3 m/S 753 mmHg 78%

Morgen, 25 Januar, Montag

Zeit Temperatur Niederschläge Wind Luftdruck Luftfeuchtigkeit
00:00 +7°C° 0 mm 3 m/S 753 mmHg 80%
01:00 +7°C° 0 mm 3 m/S 753 mmHg 82%
02:00 +7°C° 0 mm 3 m/S 753 mmHg 85%
03:00 +6°C° 0 mm 4 m/S 753 mmHg 87%
04:00 +6°C° 0 mm 4 m/S 752 mmHg 89%
05:00 +6°C° 0 mm 5 m/S 752 mmHg 92%
06:00 +7°C° 0 mm 6 m/S 751 mmHg 91%
07:00 +8°C° 0 mm 7 m/S 751 mmHg 91%
08:00 +7°C° 0 mm 8 m/S 751 mmHg 90%
09:00 +7°C° 0.9 mm 8 m/S 750 mmHg 88%
10:00 +8°C° 0.9 mm 9 m/S 749 mmHg 85%
11:00 +8°C° 0.9 mm 9 m/S 748 mmHg 83%
12:00 +8°C° 1.2 mm 10 m/S 747 mmHg 83%
13:00 +8°C° 1.2 mm 11 m/S 746 mmHg 84%
14:00 +8°C° 1.2 mm 11 m/S 745 mmHg 84%
15:00 +8°C° 1.6 mm 10 m/S 745 mmHg 85%
16:00 +7°C° 1.6 mm 8 m/S 745 mmHg 85%
17:00 +8°C° 1.6 mm 6 m/S 744 mmHg 86%
18:00 +6°C° 0.1 mm 7 m/S 745 mmHg 78%
19:00 +4°C° 0.1 mm 8 m/S 746 mmHg 70%
20:00 +2°C° 0.1 mm 10 m/S 746 mmHg 63%
21:00 +2°C° 0 mm 10 m/S 747 mmHg 64%
22:00 +1°C° 0 mm 10 m/S 747 mmHg 65%
23:00 +1°C° 0 mm 11 m/S 748 mmHg 66%

übermorgen, 26 Januar, Dienstag

Zeit Temperatur Niederschläge Wind Luftdruck Luftfeuchtigkeit
00:00 +1°C° 0 mm 10 m/S 748 mmHg 67%
01:00 0°C° 0 mm 10 m/S 749 mmHg 68%
02:00 0°C° 0 mm 10 m/S 749 mmHg 69%
03:00 0°C° 0 mm 9 m/S 750 mmHg 68%
04:00 0°C° 0 mm 8 m/S 750 mmHg 67%
05:00 0°C° 0 mm 8 m/S 751 mmHg 66%
06:00 0°C° 0 mm 7 m/S 751 mmHg 63%
07:00 0°C° 0 mm 7 m/S 752 mmHg 61%
08:00 0°C° 0 mm 7 m/S 753 mmHg 58%
09:00 +2°C° 0 mm 7 m/S 754 mmHg 53%
10:00 +3°C° 0 mm 7 m/S 755 mmHg 48%
11:00 +4°C° 0 mm 8 m/S 756 mmHg 42%
12:00 +4°C° 0 mm 7 m/S 756 mmHg 40%
13:00 +5°C° 0 mm 7 m/S 757 mmHg 39%
14:00 +5°C° 0 mm 6 m/S 757 mmHg 37%
15:00 +5°C° 0 mm 5 m/S 757 mmHg 40%
16:00 +4°C° 0 mm 4 m/S 758 mmHg 43%
17:00 +4°C° 0 mm 3 m/S 758 mmHg 46%
18:00 +3°C° 0 mm 3 m/S 759 mmHg 51%
19:00 +2°C° 0 mm 3 m/S 759 mmHg 55%
20:00 +2°C° 0 mm 2 m/S 759 mmHg 59%
21:00 +2°C° 0 mm 2 m/S 760 mmHg 58%
22:00 +2°C° 0 mm 2 m/S 760 mmHg 57%
23:00 +2°C° 0 mm 1 m/S 760 mmHg 56%

27 Januar, Mittwoch

Zeit Temperatur Niederschläge Wind Luftdruck Luftfeuchtigkeit
00:00 +2°C° 0 mm 1 m/S 760 mmHg 56%
01:00 +2°C° 0 mm 1 m/S 760 mmHg 55%
02:00 +2°C° 0 mm 1 m/S 761 mmHg 54%
03:00 +2°C° 0 mm 1 m/S 760 mmHg 55%
04:00 +1°C° 0 mm 1 m/S 760 mmHg 55%
05:00 +1°C° 0 mm 1 m/S 760 mmHg 55%
06:00 +1°C° 0 mm 1 m/S 760 mmHg 55%
07:00 +1°C° 0 mm 1 m/S 760 mmHg 55%
08:00 +1°C° 0 mm 1 m/S 761 mmHg 54%
09:00 +3°C° 0 mm 1 m/S 761 mmHg 51%
10:00 +4°C° 0 mm 1 m/S 761 mmHg 47%
11:00 +4°C° 0 mm 2 m/S 760 mmHg 44%
12:00 +4°C° 0 mm 2 m/S 760 mmHg 43%
13:00 +6°C° 0 mm 1 m/S 760 mmHg 43%
14:00 +6°C° 0 mm 1 m/S 760 mmHg 42%
15:00 +5°C° 0 mm 1 m/S 759 mmHg 46%
16:00 +5°C° 0 mm 1 m/S 759 mmHg 50%
17:00 +4°C° 0 mm 1 m/S 759 mmHg 54%
18:00 +3°C° 0 mm 1 m/S 759 mmHg 56%
19:00 +3°C° 0 mm 1 m/S 760 mmHg 58%
20:00 +1°C° 0 mm 2 m/S 760 mmHg 60%
21:00 +1°C° 0 mm 2 m/S 760 mmHg 61%
22:00 +1°C° 0 mm 2 m/S 760 mmHg 62%
23:00 +1°C° 0 mm 2 m/S 760 mmHg 63%

28 Januar, Donnerstag

Zeit Temperatur Niederschläge Wind Luftdruck Luftfeuchtigkeit
00:00 -1°C° 0 mm 2 m/S 760 mmHg 63%
01:00 -1°C° 0 mm 2 m/S 759 mmHg 63%
02:00 -1°C° 0 mm 2 m/S 759 mmHg 63%
03:00 -1°C° 0 mm 2 m/S 759 mmHg 63%
04:00 -1°C° 0 mm 2 m/S 759 mmHg 62%
05:00 -1°C° 0 mm 2 m/S 759 mmHg 62%
06:00 -1°C° 0 mm 2 m/S 759 mmHg 61%
07:00 -1°C° 0 mm 2 m/S 760 mmHg 61%
08:00 -1°C° 0 mm 2 m/S 760 mmHg 60%
09:00 +1°C° 0 mm 2 m/S 760 mmHg 56%
10:00 +2°C° 0 mm 2 m/S 760 mmHg 52%
11:00 +3°C° 0 mm 2 m/S 760 mmHg 47%
12:00 +3°C° 0 mm 3 m/S 760 mmHg 46%
13:00 +3°C° 0 mm 3 m/S 759 mmHg 45%
14:00 +4°C° 0 mm 3 m/S 759 mmHg 44%
15:00 +4°C° 0 mm 2 m/S 759 mmHg 48%
16:00 +3°C° 0 mm 2 m/S 759 mmHg 51%
17:00 +3°C° 0 mm 1 m/S 759 mmHg 54%
18:00 +2°C° 0 mm 1 m/S 759 mmHg 57%
19:00 +2°C° 0 mm 1 m/S 759 mmHg 59%
20:00 +1°C° 0 mm 1 m/S 759 mmHg 61%

29 Januar, Freitag

Zeit Temperatur Niederschläge Wind Luftdruck Luftfeuchtigkeit
Mehr zeigen

Wir brauchen deine Erlaubnis

Meteoprog und unser Service Anbieter werden persönliche Daten aufbewahren, so wie Cookies, Geräte Bezeichnung oder ähnliche Technologien von deinem Gerät und Prozess, so wie Persönliche Daten Inhalte und Werbungen, genauso wie social Media und den Verkehr zu analysieren.

  • Aufbewahrung und/oder Zugang zu deiner Geräte Informationen.

    Cookies, Geräte Bezeichnung oder andere Informationen, können aufbewahrt oder Zugang zu deinem Gerät erhalten, für den Grund, der oben angegeben wird.

  • Personalisierte Werbung und Inhalte, Messungen, Einblick in das Publikum und Produkt Entwicklung.

    Werbungen und Inhalte können personalisiert werden, basierend auf ein Profil. Mehr Daten können besser personalisierte Werbungen und Inhalte hinzufügen. Werbung und Inhalte können gezeigt und gemessen werden. Einblicke über das Publikum, welche die Werbung gesehen haben und den Inhalt, können abgeleitet werden. So wie Daten können genutzt werden, um es zu verbessern oder die Benutzer Erfahrung zu verbessern das System und die Software.

Wenn du “Ich stimme zu” klickst, erlaubst du uns, die Cookies zu benutzen die Geräte Bezeichnung, den Web oder ähnliche Technologien zu benutzen. Deine Settings, können in deinem Gerät bei deinem Browser geändert werden.

Für den bestimmten Zweck, berechtigten Interessen beruhen darauf, mehr als auf den Inhalt. Du kannst mehr darüber in unseren Privaten und Cookie Politik lesen.